GW0876 Weather Reports


time (UTC)temp
C
wind
direction
speed
KPH
gust
KPH
rain 1hr
cm
rain 24hr
cm
rain mn
cm
humidity
%
barometer
mb
20260506221732 15 309 0.0 3.2 0.00 0.05 0.00 80 1007.8
20260506220734 15 273 0.0 3.2 0.00 0.05 0.00 81 1007.9
20260506220216 15 11 3.2 3.2 0.00 0.05 0.05 82 1007.9
20260506214734 15 50 0.0 3.2 0.00 0.05 0.05 82 1008.1
20260506213735 15 69 0.0 1.6 0.00 0.05 0.05 81 1007.9
20260506212733 15 66 0.0 3.2 0.00 0.05 0.05 81 1007.9
20260506211733 16 256 0.0 3.2 0.00 0.05 0.05 81 1007.9
20260506210735 16 50 0.0 1.6 0.00 0.05 0.05 81 1007.9
20260506205733 16 299 0.0 1.6 0.00 0.05 0.05 80 1007.8
20260506204733 16 3 0.0 1.6 0.00 0.05 0.05 80 1007.8
20260506204215 16 89 0.0 1.6 0.00 0.05 0.05 79 1008.0
20260506202734 16 315 0.0 3.2 0.00 0.05 0.05 78 1007.8
20260506201726 16 119 0.0 4.8 0.00 0.05 0.05 78 1007.8
20260506200746 16 269 0.0 3.2 0.00 0.05 0.05 77 1007.7
20260506195732 16 263 0.0 3.2 0.00 0.05 0.05 76 1007.7
20260506194732 17 112 0.0 1.6 0.00 0.05 0.05 75 1007.9
20260506193735 17 24 0.0 3.2 0.00 0.05 0.05 75 1007.8
20260506192732 17 244 1.6 3.2 0.00 0.05 0.05 73 1007.8
20260506191732 18 283 3.2 3.2 0.00 0.05 0.05 71 1007.9
20260506190733 18 283 3.2 6.4 0.00 0.05 0.05 71 1007.8
20260506185732 18 262 4.8 6.4 0.00 0.05 0.05 69 1008.0
20260506184732 19 274 0.0 6.4 0.00 0.05 0.05 67 1007.8
20260506183734 20 274 4.8 9.7 0.00 0.05 0.05 64 1007.6
20260506182733 20 272 4.8 12.9 0.00 0.05 0.05 62 1007.6
20260506181733 20 304 0.0 3.2 0.00 0.05 0.05 60 1006.9
20260506181711 20 252 0.0 4.8 0.00 0.05 0.05 58 1007.0
20260506180212 21 45 1.6 4.8 0.00 0.05 0.05 56 1006.7
20260506175217 20 311 0.0 4.8 0.00 0.05 0.05 58 1006.8
20260506173733 20 297 0.0 3.2 0.00 0.05 0.05 60 1006.8
20260506172732 20 58 0.0 3.2 0.00 0.05 0.05 61 1006.6
20260506171732 20 92 1.6 3.2 0.05 0.05 0.05 66 1006.6
20260506171216 20 304 0.0 3.2 0.05 0.05 0.05 66 1006.9
20260506165732 20 300 0.0 3.2 0.05 0.00 0.05 65 1006.9
20260506164732 20 111 0.0 4.8 0.05 0.00 0.05 65 1006.9
20260506163733 20 306 1.6 6.4 0.05 0.00 0.05 65 1007.2
20260506163237 20 287 3.2 20.9 0.03 0.00 0.03 61 1007.1
20260506161732 22 275 16.1 17.7 0.00 0.00 0.00 56 1007.1
20260506160733 22 218 0.0 11.3 0.00 0.00 0.00 51 1007.1
20260506160206 22 95 6.4 6.4 0.00 0.00 0.00 50 1007.0
20260506154733 23 111 1.6 9.7 0.00 0.00 0.00 48 1006.9
20260506153733 23 96 3.2 9.7 0.00 0.00 0.00 45 1007.2
20260506152732 25 311 0.0 9.7 0.00 0.00 0.00 43 1007.1
20260506151733 25 85 3.2 9.7 0.00 0.00 0.00 42 1006.9
20260506150734 24 104 4.8 14.5 0.00 0.00 0.00 41 1007.2
20260506145732 23 327 3.2 14.5 0.00 0.00 0.00 43 1007.2
20260506145220 25 351 1.6 11.3 0.00 0.00 0.00 41 1007.3
20260506144211 25 66 3.2 12.9 0.00 0.00 0.00 40 1007.2
20260506142733 26 287 3.2 14.5 0.00 0.00 0.00 41 1007.3
20260506142214 26 356 4.8 11.3 0.00 0.00 0.00 38 1007.2
20260506140734 27 306 3.2 14.5 0.00 0.00 0.00 35 1007.1
20260506135732 26 277 3.2 9.7 0.00 0.00 0.00 35 1007.1
20260506134738 28 239 3.2 8.0 0.00 0.00 0.00 34 1006.9
20260506134216 26 287 3.2 9.7 0.00 0.00 0.00 36 1007.0
20260506132745 25 276 4.8 11.3 0.00 0.00 0.00 37 1007.1
20260506131732 26 301 4.8 14.5 0.00 0.00 0.00 36 1007.1
20260506130734 26 272 6.4 16.1 0.00 0.00 0.00 36 1006.9
20260506130206 26 46 3.2 14.5 0.00 0.00 0.00 36 1007.1
20260506124736 27 273 8.0 12.9 0.00 0.00 0.00 36 1007.3
20260506123737 27 287 6.4 14.5 0.00 0.00 0.00 36 1007.2
20260506123220 26 293 1.6 17.7 0.00 0.00 0.00 38 1007.3
20260506122209 26 281 9.7 19.3 0.00 0.00 0.00 38 1007.2
20260506120734 26 282 3.2 12.9 0.00 0.00 0.00 38 1007.0
20260506115732 26 256 1.6 22.5 0.00 0.00 0.00 39 1007.3
20260506115654 25 305 3.2 16.1 0.00 0.00 0.00 39 1007.4
20260506114220 26 280 6.4 16.1 0.00 0.00 0.00 38 1007.4
20260506112732 26 303 3.2 17.7 0.00 0.00 0.00 39 1007.3
20260506111732 26 280 3.2 17.7 0.00 0.00 0.00 38 1007.4
20260506110733 25 290 4.8 14.5 0.00 0.00 0.00 39 1007.3
20260506105732 27 128 3.2 12.9 0.00 0.00 0.00 38 1007.4
20260506105133 25 304 0.0 12.9 0.00 0.00 0.00 37 1007.0
20260506104916 26 253 3.2 12.9 0.00 0.00 0.00 39 1007.2
20260506102732 26 285 6.4 17.7 0.00 0.00 0.00 37 1007.2
20260506101732 25 302 1.6 14.5 0.00 0.00 0.00 36 1007.3
20260506100734 24 287 6.4 17.7 0.00 0.00 0.00 37 1007.2
20260506100212 25 281 14.5 14.5 0.00 0.00 0.00 36 1007.2
20260506095215 24 276 3.2 16.1 0.00 0.00 0.00 38 1007.1
20260506093734 25 326 3.2 12.9 0.00 0.00 0.00 38 1006.8
20260506092732 25 286 11.3 17.7 0.00 0.00 0.00 38 1007.2
20260506091733 24 260 3.2 20.9 0.00 0.00 0.00 37 1007.2
20260506090734 24 276 9.7 11.3 0.00 0.00 0.00 37 1007.1
20260506085733 23 149 3.2 14.5 0.00 0.00 0.00 38 1007.1
20260506084733 23 81 3.2 16.1 0.00 0.00 0.00 39 1007.0
20260506083733 23 320 4.8 14.5 0.00 0.00 0.00 40 1007.0
20260506082733 22 276 6.4 16.1 0.00 0.00 0.00 40 1007.1
20260506081732 22 89 3.2 12.9 0.00 0.00 0.00 41 1006.9
20260506081221 22 292 3.2 12.9 0.00 0.00 0.00 42 1007.0
20260506072732 21 327 1.6 16.1 0.00 0.00 0.00 43 1006.8
20260506071733 21 340 3.2 14.5 0.00 0.00 0.00 43 1007.0
20260506071213 21 312 3.2 17.7 0.00 0.00 0.00 44 1006.9
20260506061733 19 292 8.0 16.1 0.00 0.00 0.00 49 1006.7
20260506060734 19 265 4.8 9.7 0.00 0.00 0.00 50 1006.4
20260506050747 15 88 1.6 6.4 0.00 0.00 0.00 56 1006.6
20260506044732 15 91 4.8 6.4 0.00 0.00 0.00 54 1006.7
20260506043733 15 217 0.0 6.4 0.00 0.00 0.00 53 1006.9
20260506042732 15 82 3.2 6.4 0.00 0.00 0.00 52 1006.9
20260506041732 15 125 3.2 6.4 0.00 0.00 0.00 51 1006.8
20260506041214 15 89 3.2 4.8 0.00 0.00 0.00 51 1007.1
20260506035732 15 125 3.2 8.0 0.00 0.00 0.00 51 1006.8
20260506034732 15 39 4.8 8.0 0.00 0.00 0.00 51 1007.0
20260506033734 15 81 1.6 6.4 0.00 0.00 0.00 50 1006.9
20260506032732 15 95 1.6 8.0 0.00 0.00 0.00 51 1007.0
20260506031732 15 51 3.2 6.4 0.00 0.00 0.00 51 1007.0
20260506030734 15 332 4.8 6.4 0.00 0.00 0.00 51 1007.0
20260506025733 15 37 1.6 6.4 0.00 0.00 0.00 50 1007.2
20260506024732 15 149 3.2 6.4 0.00 0.00 0.00 50 1006.9
20260506024217 15 64 0.0 6.4 0.00 0.00 0.00 50 1007.0
20260506022732 15 27 4.8 8.0 0.00 0.00 0.00 49 1007.3
20260506021732 15 91 3.2 6.4 0.00 0.00 0.00 50 1007.1
20260506020733 15 177 3.2 6.4 0.00 0.00 0.00 50 1007.1
20260506015732 15 332 1.6 6.4 0.00 0.00 0.00 51 1007.2
20260506015236 15 91 0.0 6.4 0.00 0.00 0.00 50 1007.3
20260506013733 15 74 1.6 9.7 0.00 0.00 0.00 50 1007.3
20260506012732 14 347 3.2 6.4 0.00 0.00 0.00 53 1007.4
20260506012643 13 272 0.0 4.8 0.00 0.00 0.00 57 1007.2
20260506010734 13 107 0.0 3.2 0.00 0.00 0.00 57 1007.3
20260506005732 13 129 0.0 1.6 0.00 0.00 0.00 59 1007.4
20260506005214 13 124 0.0 3.2 0.00 0.00 0.00 58 1007.4
20260506003733 14 103 0.0 0.0 0.00 0.00 0.00 58 1007.4
20260506002733 14 124 0.0 0.0 0.00 0.00 0.00 58 1007.3
20260506001732 14 304 0.0 0.0 0.00 0.00 0.00 57 1007.4
20260506000733 14 62 0.0 0.0 0.00 0.00 0.00 56 1007.3
20260505235732 15 62 0.0 0.0 0.00 0.00 0.00 54 1007.4
20260505234732 15 315 0.0 0.0 0.00 0.00 0.00 52 1007.4
20260505233733 15 62 0.0 0.0 0.00 0.00 0.00 50 1007.5
20260505232733 15 129 0.0 0.0 0.00 0.00 0.00 49 1007.6
20260505231732 16 293 0.0 0.0 0.00 0.00 0.00 50 1007.4
20260505230746 16 230 0.0 0.0 0.00 0.00 0.00 48 1007.6
20260505230206 16 309 0.0 1.6 0.00 0.00 0.00 46 1007.7
20260505224732 17 22 0.0 3.2 0.00 0.00 0.00 46 1007.7
20260505224645 17 50 0.0 6.4 0.00 0.00 0.00 44 1007.9
20260505222732 17 94 0.0 4.8 0.00 0.00 0.00 44 1007.8